sat.trackr.live / text

‹ back to catalog

STARLINK-35825

NORAD 66567 · 2025-268L

PAYLOAD ACTIVE UNKNOWN

§ Identity

Operator
Country
US
Launch date
2025-11-21
Launch site
AFETR
Launch vehicle
Mass (kg)
RCS (m²)

Purposes: comms

External: N2YO · Heavens-Above · Gunter

§ Orbital elements

Epoch: 2026-09-20T20:55:18.727392Z

Period
94.27 min
Inclination
43.0020°
Eccentricity
0.0000829
Mean motion
15.27599622 rev/d
Perigee alt
482.4 km
Apogee alt
483.6 km
Semi-major
6,861.1 km
B*
4.9221e-4
RAAN
324.4901°
Arg perigee
274.8330°
Mean anomaly
85.2427°
Rev number
4,781

§ Raw data

STARLINK-358251 66567U 25268L   26263.87174453  .00013315  00000+0  49221-3 0  99942 66567  43.0020 324.4901 0000829 274.8330  85.2427 15.27599622 47816

JSON: /api/v1/satellites/66567 · /tle

For live sub-satellite position, see the globe view (requires WebGL).

§ Visibility from observer

Set your observer location to see the next 7 days of passes ≥ 10°. The values pass through the URL so the page stays shareable.

No JS? Fill the form by hand. The geolocation button needs JavaScript.